FW8095 Weather Reports


Display with metric or nautical units.
time (UTC)temp
F
wind
direction
speed
MPH
gust
MPH
rain 1hr
in
rain 24hr
in
rain mn
in
humidity
%
barometer
mb
20260904233126 92 0 0.0 1.0 0.00 0.00 0.00 56 1014.6
20260904231540 93 203 0.0 3.0 0.00 0.00 0.00 55 1014.5
20260904230039 93 0 0.0 2.0 0.00 0.00 0.00 56 1014.2
20260904224548 93 0 0.0 4.0 0.00 0.00 0.00 54 1014.2
20260904223044 94 108 1.0 3.0 0.00 0.00 0.00 53 1014.1
20260904221545 94 0 0.0 3.0 0.00 0.00 0.00 53 1014.0
20260904220043 94 91 0.0 3.0 0.00 0.00 0.00 54 1013.9
20260904214547 94 94 1.0 5.0 0.00 0.00 0.00 52 1014.0
20260904213043 94 98 1.0 5.0 0.00 0.00 0.00 54 1014.1
20260904211547 95 121 1.0 5.0 0.00 0.00 0.00 52 1014.0
20260904210048 95 246 1.0 4.0 0.00 0.00 0.00 51 1014.0
20260904204542 95 100 1.0 6.0 0.00 0.00 0.00 52 1014.2
20260904203042 96 233 0.0 4.0 0.00 0.00 0.00 52 1014.3
20260904201547 96 85 0.0 5.0 0.00 0.00 0.00 52 1014.6
20260904200052 97 43 1.0 6.0 0.00 0.00 0.00 52 1015.0
20260904194543 97 288 2.0 4.0 0.00 0.00 0.00 49 1015.1
20260904193049 97 143 2.0 5.0 0.00 0.00 0.00 51 1015.4
20260904191545 97 95 2.0 6.0 0.00 0.00 0.00 52 1015.5
20260904190044 96 79 1.0 5.0 0.00 0.00 0.00 52 1015.8
20260904184559 97 89 1.0 5.0 0.00 0.00 0.00 51 1016.0
20260904183049 97 167 1.0 5.0 0.00 0.00 0.00 53 1016.1
20260904181541 96 303 3.0 5.0 0.00 0.00 0.00 53 1016.4
20260904180100 96 257 2.0 7.0 0.00 0.00 0.00 54 1016.6
20260904174547 95 298 2.0 8.0 0.00 0.00 0.00 54 1016.7
20260904173048 95 184 1.0 5.0 0.00 0.00 0.00 55 1017.1
20260904171550 94 109 0.0 4.0 0.00 0.00 0.00 55 1017.2
20260904170045 95 94 1.0 4.0 0.00 0.00 0.00 55 1017.3
20260904164542 96 124 1.0 4.0 0.00 0.00 0.00 54 1017.4
20260904163041 96 94 1.0 5.0 0.00 0.00 0.00 54 1017.6
20260904161545 95 110 1.0 3.0 0.00 0.00 0.00 54 1017.8
20260904160045 94 103 1.0 4.0 0.00 0.00 0.00 56 1017.8
20260904154544 93 94 1.0 4.0 0.00 0.00 0.00 59 1017.9
20260904153057 93 116 1.0 3.0 0.00 0.00 0.00 61 1017.7
20260904151545 92 219 1.0 3.0 0.00 0.00 0.00 62 1017.8
20260904150047 91 237 1.0 2.0 0.00 0.00 0.00 64 1017.7
20260904144542 91 160 0.0 2.0 0.00 0.00 0.00 64 1017.5
20260904143044 88 207 0.0 2.0 0.00 0.00 0.00 68 1017.5
20260904141604 87 252 0.0 1.0 0.00 0.00 0.00 70 1017.6
20260904140039 85 0 0.0 0.0 0.00 0.00 0.00 73 1017.6
20260904134540 83 0 0.0 0.0 0.00 0.00 0.00 77 1017.6
20260904133047 82 0 0.0 0.0 0.00 0.00 0.00 79 1017.4
20260904131604 81 0 0.0 0.0 0.00 0.00 0.00 80 1017.4
20260904130042 79 0 0.0 0.0 0.00 0.00 0.00 86 1017.2
20260904124548 78 0 0.0 0.0 0.00 0.00 0.00 89 1017.1
20260904123103 77 0 0.0 0.0 0.00 0.00 0.00 90 1017.0
20260904121545 76 0 0.0 0.0 0.00 0.00 0.00 91 1016.8
20260904120041 76 0 0.0 0.0 0.00 0.00 0.00 91 1016.7
20260904114546 75 0 0.0 0.0 0.00 0.00 0.00 91 1016.5
20260904113049 75 0 0.0 0.0 0.00 0.00 0.00 91 1016.4
20260904111552 76 0 0.0 0.0 0.00 0.00 0.00 92 1016.3
20260904110042 76 0 0.0 0.0 0.00 0.00 0.00 91 1016.2
20260904104546 76 0 0.0 0.0 0.00 0.00 0.00 91 1016.0
20260904103045 76 0 0.0 0.0 0.00 0.00 0.00 90 1016.1
20260904101546 76 0 0.0 0.0 0.00 0.00 0.00 90 1016.0
20260904100038 76 0 0.0 0.0 0.00 0.00 0.00 89 1015.7
20260904094546 76 0 0.0 0.0 0.00 0.00 0.00 89 1015.8
20260904093044 76 0 0.0 0.0 0.00 0.00 0.00 88 1015.7
20260904091541 77 0 0.0 0.0 0.00 0.00 0.00 89 1015.7
20260904084545 77 0 0.0 0.0 0.00 0.00 0.00 86 1015.7
20260904083052 77 0 0.0 0.0 0.00 0.00 0.00 86 1015.8
20260904081545 78 0 0.0 0.0 0.00 0.00 0.00 86 1015.7
20260904080044 78 0 0.0 0.0 0.00 0.00 0.00 86 1015.7
20260904074553 78 0 0.0 0.0 0.00 0.00 0.00 87 1015.9
20260904073041 78 0 0.0 0.0 0.00 0.00 0.00 87 1015.9
20260904071546 78 0 0.0 0.0 0.00 0.00 0.00 87 1015.9
20260904070044 78 0 0.0 0.0 0.00 0.00 0.00 88 1015.7
20260904064624 78 0 0.0 0.0 0.00 0.00 0.00 88 1015.7
20260904063146 78 0 0.0 0.0 0.00 0.00 0.00 87 1015.9
20260904061545 79 0 0.0 0.0 0.00 0.00 0.00 86 1015.9
20260904060108 79 0 0.0 0.0 0.00 0.00 0.00 87 1015.9
20260904054546 79 0 0.0 0.0 0.00 0.00 0.00 86 1015.8
20260904053046 79 0 0.0 0.0 0.00 0.00 0.00 86 1016.0
20260904051604 79 0 0.0 0.0 0.00 0.00 0.00 86 1016.0
20260904050046 80 0 0.0 0.0 0.00 0.00 0.00 86 1015.9
20260904044549 80 0 0.0 0.0 0.00 0.00 0.00 84 1016.0
20260904043043 80 0 0.0 0.0 0.00 0.00 0.00 83 1016.0
20260904041545 80 0 0.0 0.0 0.00 0.00 0.00 82 1015.9
20260904040046 81 0 0.0 0.0 0.00 0.00 0.00 81 1015.9
20260904034558 81 0 0.0 0.0 0.00 0.00 0.00 80 1016.1
20260904033041 82 0 0.0 0.0 0.00 0.00 0.00 80 1016.2
20260904031547 82 0 0.0 0.0 0.00 0.00 0.00 79 1016.2
20260904030045 82 0 0.0 0.0 0.00 0.00 0.00 77 1016.1
20260904024545 82 0 0.0 0.0 0.00 0.00 0.00 78 1016.2
20260904023041 83 0 0.0 0.0 0.00 0.00 0.00 76 1016.3
20260904021546 83 0 0.0 0.0 0.00 0.00 0.00 76 1016.2
20260904020048 83 0 0.0 0.0 0.00 0.00 0.00 75 1016.0
20260904014549 84 0 0.0 0.0 0.00 0.00 0.00 74 1015.9
20260904013042 84 0 0.0 0.0 0.00 0.00 0.00 73 1015.7
20260904011543 85 0 0.0 0.0 0.00 0.00 0.00 72 1015.7
20260904010053 85 0 0.0 0.0 0.00 0.00 0.00 71 1015.4
20260904004556 86 0 0.0 0.0 0.00 0.00 0.00 71 1015.3
20260904003049 87 0 0.0 0.0 0.00 0.00 0.00 70 1015.3
20260904001544 87 0 0.0 0.0 0.00 0.00 0.00 69 1015.2
20260904000131 88 0 0.0 1.0 0.00 0.00 0.00 68 1015.2
20260903234544 88 0 0.0 0.0 0.00 0.00 0.00 67 1015.2